Location: Shenandoah County Park
(38.9356°N, 78.4524°W)
Time: 09:51:09
(UTC-04:00)

Vanguard 1 Rocket - Pass Details

Date: 08 February 2023
Orbit: 652 x 4223 km, 34.3° (Epoch: 24 March)

Event Time Altitude Azimuth Distance (km) Brightness Sun altitude
Rises 18:39:13 0° 280° (W) 6,778 13.3 -11.4°
Reaches altitude 10° 18:44:19 10° 270° (W) 6,231 13.1 -12.4°
Maximum altitude 19:00:24 27° 221° (SW) 5,822 12.0 -15.5°
Drops below altitude 10° 19:19:39 10° 174° (S) 7,318 12.0 -19.2°
Sets 19:26:41 0° 163° (SSE) 8,095 12.1 -20.6°
